User: anonymous   Login
Location: Fountain Hills
(33.6120°N, 111.7170°W)
Time: 23:30:41
(UTC-07:00)
Language:

Hamsat - Orbit

View from above orbital plane
View from above orbital plane
View from above satellite
View from above satellite

Ground track
Ground track

The orbit data is extracted from the following two-line orbital elements,

1 28650U 05017B   17232.54651091 +.00000338 +00000-0 +41859-4 0  9995
2 28650 097.6567 204.7243 0021977 278.4217 081.4509 14.88712129665672
Epoch (UTC): 20 August 2017 13:06:58
Eccentricity: 0.0021977
inclination: 97.6567°
perigee height: 586 km
apogee height: 617 km
right ascension of ascending node: 204.7243°
argument of perigee: 278.4217°
revolutions per day: 14.88712129
mean anomaly at epoch: 81.4509°
orbit number at epoch: 66567

The dashed part of the orbit path shows where the satellite is in the earth's shadow,  

DLR